Location: Sternwarte Stuttgart
(48.7670°N, 9.1830°E)
Time: 11:06:57
(UTC+02:00)

Cosmos 1726 - Pass Details

Date: 24 January 2019
Orbit: 482 x 502 km, 82.5° (Epoch: 17 October)

Event Time Altitude Azimuth Distance (km) Brightness Sun altitude
Rises 05:57:56 0° 180° (S) 2,560 5.8 -20.4°
Reaches altitude 10° 06:00:02 10° 177° (S) 1,687 4.9 -20.1°
Maximum altitude 06:03:41 62° 97° (E) 564 2.6 -19.5°
Drops below altitude 10° 06:07:23 10° 16° (NNE) 1,715 4.9 -18.9°
Sets 06:09:32 0° 13° (NNE) 2,607 5.8 -18.5°
